Simultaneous Nadir Overpasses (SNOs) Predictions

Prediction of SNOs between METOP-A and TERRA Satellite Orbit:

Table of predicted SNOs for the next 14.0 days since TLE Epoch: 10/26/2019
Index Date (METOP-A) Time (METOP-A) Lat,Lon (METOP-A) SZA (METOP-A ) Date (TERRA) Time (TERRA) Lat,Lon (TERRA) SZA (TERRA ) Distance(km) Time Diff (sec)
1 10/28/2019 21:04:36 81.44, -86.25 98.09 10/28/2019 21:05:35 81.46, -86.08 98.15 3.17 59
2 10/28/2019 21:55:16 -81.44, 81.31 81.88 10/28/2019 21:55:03 -81.44, 81.12 81.91 3.22 13
3 10/31/2019 16:39:00 81.44, -19.93 99.01 10/31/2019 16:39:51 81.45, -19.77 99.05 2.76 51
4 10/31/2019 17:29:40 -81.44, 147.65 80.96 10/31/2019 17:29:19 -81.43, 147.46 81.00 3.32 21
5 11/03/2019 12:13:23 81.44, 46.77 99.93 11/03/2019 12:14:07 81.45, 46.60 99.93 3.00 44
6 11/03/2019 13:04:04 -81.44,-146.03 80.08 11/03/2019 13:03:35 -81.43,-146.15 80.12 2.33 29
7 11/06/2019 07:47:46 81.44, 113.05 100.77 11/06/2019 07:48:22 81.45, 113.02 100.79 0.92 36




NCC Satellite Simultaneous Nadir Overpasses (SNOs) Prediction Service
